| time (UTC) | temp F | wind direction | speed knots | gust knots | rain 1hr in | rain 24hr in | rain mn in | humidity % | barometer mb |
| 20260504000538 | 58 | 0 | 0.0 | 0.0 | 0.00 | 0.00 | 0.00 | 47 | 1014.1 |
| 20260504000055 | 59 | 0 | 0.0 | 0.0 | 0.00 | 0.00 | 0.00 | 51 | 1014.0 |
| 20260503235538 | 59 | 0 | 0.0 | 0.0 | 0.00 | 0.00 | 0.00 | 47 | 1013.9 |
| 20260503235036 | 60 | 0 | 0.0 | 0.0 | 0.00 | 0.00 | 0.00 | 44 | 1013.9 |
| 20260503234551 | 60 | 0 | 0.0 | 0.0 | 0.00 | 0.00 | 0.00 | 42 | 1013.8 |
| 20260503234036 | 61 | 0 | 0.0 | 0.0 | 0.00 | 0.00 | 0.00 | 36 | 1013.8 |
| 20260503233541 | 61 | 0 | 0.0 | 0.0 | 0.00 | 0.00 | 0.00 | 34 | 1013.7 |
| 20260503233054 | 62 | 0 | 0.0 | 0.0 | 0.00 | 0.00 | 0.00 | 34 | 1013.8 |
| 20260503232541 | 62 | 0 | 0.0 | 0.0 | 0.00 | 0.00 | 0.00 | 34 | 1013.7 |
| 20260503232036 | 62 | 0 | 0.0 | 0.0 | 0.00 | 0.00 | 0.00 | 33 | 1013.7 |
| 20260503231548 | 62 | 0 | 0.0 | 0.9 | 0.00 | 0.00 | 0.00 | 31 | 1013.6 |
| 20260503231038 | 62 | 0 | 0.0 | 0.9 | 0.00 | 0.00 | 0.00 | 30 | 1013.6 |
| 20260503230538 | 62 | 0 | 0.0 | 1.7 | 0.00 | 0.00 | 0.00 | 31 | 1013.6 |
| 20260503230059 | 62 | 0 | 0.0 | 1.7 | 0.00 | 0.00 | 0.00 | 30 | 1013.6 |
| 20260503225537 | 63 | 0 | 0.0 | 1.7 | 0.00 | 0.00 | 0.00 | 31 | 1013.7 |
| 20260503225038 | 63 | 260 | 0.0 | 3.5 | 0.00 | 0.00 | 0.00 | 30 | 1013.7 |
| 20260503224546 | 63 | 0 | 0.0 | 3.5 | 0.00 | 0.00 | 0.00 | 30 | 1013.8 |
| 20260503224038 | 63 | 0 | 0.0 | 2.6 | 0.00 | 0.00 | 0.00 | 30 | 1013.7 |
| 20260503223537 | 63 | 198 | 0.0 | 7.0 | 0.00 | 0.00 | 0.00 | 30 | 1013.9 |
| 20260503223049 | 63 | 276 | 2.6 | 7.0 | 0.00 | 0.00 | 0.00 | 28 | 1014.0 |
| 20260503222536 | 63 | 231 | 0.9 | 6.1 | 0.00 | 0.00 | 0.00 | 30 | 1014.0 |
| 20260503222038 | 63 | 0 | 0.0 | 1.7 | 0.00 | 0.00 | 0.00 | 30 | 1013.9 |
| 20260503221554 | 63 | 0 | 0.0 | 2.6 | 0.00 | 0.00 | 0.00 | 30 | 1013.9 |
| 20260503221038 | 63 | 270 | 0.0 | 2.6 | 0.00 | 0.00 | 0.00 | 29 | 1014.0 |
| 20260503220537 | 63 | 267 | 0.0 | 5.2 | 0.00 | 0.00 | 0.00 | 30 | 1014.0 |
| 20260503220051 | 63 | 0 | 1.7 | 5.2 | 0.00 | 0.00 | 0.00 | 30 | 1014.0 |
| 20260503215536 | 63 | 266 | 0.9 | 6.1 | 0.00 | 0.00 | 0.00 | 29 | 1014.0 |
| 20260503215037 | 63 | 0 | 0.0 | 6.1 | 0.00 | 0.00 | 0.00 | 31 | 1014.0 |
| 20260503214547 | 63 | 267 | 0.0 | 7.0 | 0.00 | 0.00 | 0.00 | 29 | 1014.0 |
| 20260503214040 | 63 | 258 | 1.7 | 7.0 | 0.00 | 0.00 | 0.00 | 29 | 1014.1 |
| 20260503213539 | 63 | 279 | 0.9 | 7.0 | 0.00 | 0.00 | 0.00 | 29 | 1014.1 |
| 20260503213100 | 64 | 138 | 1.7 | 6.1 | 0.00 | 0.00 | 0.00 | 29 | 1014.0 |
| 20260503212538 | 64 | 219 | 0.0 | 6.1 | 0.00 | 0.00 | 0.00 | 30 | 1014.2 |
| 20260503212038 | 64 | 259 | 1.7 | 6.1 | 0.00 | 0.00 | 0.00 | 29 | 1014.1 |
| 20260503211546 | 64 | 292 | 0.0 | 3.5 | 0.00 | 0.00 | 0.00 | 32 | 1014.1 |
| 20260503211037 | 65 | 0 | 0.0 | 1.7 | 0.00 | 0.00 | 0.00 | 30 | 1014.1 |
| 20260503210540 | 65 | 0 | 0.0 | 3.5 | 0.00 | 0.00 | 0.00 | 28 | 1014.1 |
| 20260503210055 | 65 | 281 | 0.9 | 3.5 | 0.00 | 0.00 | 0.00 | 28 | 1014.1 |
| 20260503205537 | 65 | 15 | 0.9 | 3.5 | 0.00 | 0.00 | 0.00 | 31 | 1014.1 |
| 20260503205038 | 65 | 15 | 0.9 | 5.2 | 0.00 | 0.00 | 0.00 | 31 | 1014.1 |
| 20260503204553 | 65 | 0 | 0.9 | 5.2 | 0.00 | 0.00 | 0.00 | 29 | 1014.1 |
| 20260503204037 | 65 | 244 | 0.9 | 3.5 | 0.00 | 0.00 | 0.00 | 28 | 1014.2 |
| 20260503203537 | 65 | 352 | 0.0 | 6.1 | 0.00 | 0.00 | 0.00 | 31 | 1014.2 |
| 20260503203050 | 65 | 0 | 1.7 | 6.1 | 0.00 | 0.00 | 0.00 | 28 | 1014.3 |
| 20260503202538 | 65 | 167 | 0.0 | 6.1 | 0.00 | 0.00 | 0.00 | 28 | 1014.3 |
| 20260503202037 | 65 | 178 | 2.6 | 6.1 | 0.00 | 0.00 | 0.00 | 27 | 1014.4 |
| 20260503201548 | 65 | 217 | 0.9 | 6.1 | 0.00 | 0.00 | 0.00 | 28 | 1014.4 |
| 20260503201039 | 65 | 270 | 0.9 | 6.1 | 0.00 | 0.00 | 0.00 | 28 | 1014.5 |
| 20260503200537 | 65 | 0 | 0.0 | 4.3 | 0.00 | 0.00 | 0.00 | 27 | 1014.6 |
| 20260503200100 | 65 | 0 | 0.9 | 4.3 | 0.00 | 0.00 | 0.00 | 32 | 1014.7 |
| 20260503195538 | 65 | 0 | 1.7 | 5.2 | 0.00 | 0.00 | 0.00 | 28 | 1014.8 |
| 20260503195038 | 64 | 269 | 0.9 | 5.2 | 0.00 | 0.00 | 0.00 | 30 | 1014.9 |
| 20260503194551 | 64 | 264 | 0.9 | 3.5 | 0.00 | 0.00 | 0.00 | 32 | 1015.1 |
| 20260503194037 | 64 | 0 | 0.0 | 3.5 | 0.00 | 0.00 | 0.00 | 33 | 1015.1 |
| 20260503193539 | 63 | 79 | 0.0 | 6.1 | 0.00 | 0.00 | 0.00 | 31 | 1015.1 |
| 20260503193052 | 63 | 0 | 0.9 | 6.1 | 0.00 | 0.00 | 0.00 | 30 | 1015.2 |
| 20260503192538 | 63 | 152 | 1.7 | 6.1 | 0.00 | 0.00 | 0.00 | 30 | 1015.3 |
| 20260503192039 | 62 | 254 | 1.7 | 6.1 | 0.00 | 0.00 | 0.00 | 30 | 1015.4 |
| 20260503191608 | 62 | 254 | 1.7 | 6.1 | 0.00 | 0.00 | 0.00 | 30 | 1015.5 |
| 20260503191038 | 63 | 206 | 0.9 | 5.2 | 0.00 | 0.00 | 0.00 | 34 | 1015.4 |
| 20260503190536 | 63 | 288 | 0.9 | 5.2 | 0.00 | 0.00 | 0.00 | 33 | 1015.4 |
| 20260503190051 | 63 | 0 | 1.7 | 5.2 | 0.00 | 0.00 | 0.00 | 31 | 1015.6 |
| 20260503185542 | 63 | 261 | 0.0 | 5.2 | 0.00 | 0.00 | 0.00 | 33 | 1015.6 |
| 20260503185038 | 63 | 289 | 0.9 | 5.2 | 0.00 | 0.00 | 0.00 | 36 | 1015.8 |
| 20260503184556 | 63 | 344 | 0.9 | 3.5 | 0.00 | 0.00 | 0.00 | 34 | 1015.7 |
| 20260503184041 | 62 | 355 | 0.9 | 3.5 | 0.00 | 0.00 | 0.00 | 33 | 1015.8 |
| 20260503183538 | 62 | 275 | 0.9 | 3.5 | 0.00 | 0.00 | 0.00 | 31 | 1016.0 |
| 20260503183114 | 62 | 317 | 0.9 | 3.5 | 0.00 | 0.00 | 0.00 | 34 | 1016.0 |
| 20260503182536 | 62 | 360 | 0.9 | 3.5 | 0.00 | 0.00 | 0.00 | 31 | 1016.0 |
| 20260503182036 | 62 | 5 | 0.9 | 3.5 | 0.00 | 0.00 | 0.00 | 36 | 1016.0 |
| 20260503181551 | 62 | 293 | 1.7 | 3.5 | 0.00 | 0.00 | 0.00 | 30 | 1016.0 |
| 20260503181038 | 62 | 295 | 1.7 | 5.2 | 0.00 | 0.00 | 0.00 | 31 | 1016.1 |
| 20260503180542 | 61 | 0 | 1.7 | 7.0 | 0.00 | 0.00 | 0.00 | 34 | 1016.1 |
| 20260503180052 | 61 | 273 | 2.6 | 7.0 | 0.00 | 0.00 | 0.00 | 30 | 1016.2 |
| 20260503175537 | 61 | 0 | 0.0 | 6.1 | 0.00 | 0.00 | 0.00 | 31 | 1016.1 |
| 20260503175041 | 61 | 278 | 1.7 | 6.1 | 0.00 | 0.00 | 0.00 | 32 | 1016.2 |
| 20260503174549 | 61 | 339 | 0.9 | 7.8 | 0.00 | 0.00 | 0.00 | 33 | 1016.2 |
| 20260503174038 | 61 | 272 | 1.7 | 7.8 | 0.00 | 0.00 | 0.00 | 33 | 1016.1 |
| 20260503173537 | 60 | 207 | 1.7 | 6.1 | 0.00 | 0.00 | 0.00 | 33 | 1016.2 |
| 20260503173113 | 60 | 232 | 1.7 | 7.8 | 0.00 | 0.00 | 0.00 | 31 | 1016.4 |
| 20260503172537 | 60 | 226 | 0.9 | 7.8 | 0.00 | 0.00 | 0.00 | 35 | 1016.4 |
| 20260503172044 | 60 | 292 | 0.9 | 3.5 | 0.00 | 0.00 | 0.00 | 33 | 1016.4 |
| 20260503171550 | 60 | 297 | 0.9 | 7.0 | 0.00 | 0.00 | 0.00 | 35 | 1016.5 |
| 20260503171038 | 60 | 350 | 0.9 | 7.0 | 0.00 | 0.00 | 0.00 | 40 | 1016.5 |
| 20260503170537 | 60 | 209 | 1.7 | 6.1 | 0.00 | 0.00 | 0.00 | 33 | 1016.5 |
| 20260503150534 | 54 | 349 | 1.7 | 4.3 | 0.00 | 0.00 | 0.00 | 42 | 1017.3 |
| 20260503131033 | 50 | 290 | 1.7 | 8.7 | 0.00 | 0.00 | 0.00 | 52 | 1017.5 |
| 20260503130536 | 50 | 341 | 1.7 | 8.7 | 0.00 | 0.00 | 0.00 | 57 | 1017.6 |
| 20260503110534 | 43 | 0 | 0.0 | 0.0 | 0.00 | 0.00 | 0.00 | 71 | 1016.5 |
| 20260503081551 | 44 | 0 | 0.0 | 0.0 | 0.00 | 0.00 | 0.00 | 63 | 1014.8 |
| 20260503081035 | 44 | 0 | 0.0 | 0.0 | 0.00 | 0.00 | 0.00 | 63 | 1014.7 |
| 20260503080540 | 45 | 0 | 0.0 | 0.0 | 0.00 | 0.00 | 0.00 | 63 | 1014.6 |
| 20260503072538 | 46 | 0 | 0.0 | 0.0 | 0.00 | 0.00 | 0.00 | 58 | 1014.5 |
| 20260503072036 | 47 | 0 | 0.0 | 0.0 | 0.00 | 0.00 | 0.00 | 57 | 1014.4 |
| 20260503071550 | 47 | 0 | 0.0 | 0.0 | 0.00 | 0.00 | 0.00 | 57 | 1014.2 |
| 20260503071039 | 47 | 0 | 0.0 | 0.0 | 0.00 | 0.00 | 0.00 | 57 | 1014.2 |
| 20260503070538 | 47 | 0 | 0.0 | 1.7 | 0.00 | 0.00 | 0.00 | 56 | 1014.1 |
| 20260503055037 | 49 | 0 | 0.0 | 1.7 | 0.00 | 0.00 | 0.00 | 55 | 1013.7 |
| 20260503054550 | 49 | 0 | 0.0 | 0.9 | 0.00 | 0.00 | 0.00 | 54 | 1013.7 |
| 20260503054036 | 49 | 0 | 0.0 | 0.9 | 0.00 | 0.00 | 0.00 | 55 | 1013.7 |
| 20260503053538 | 50 | 0 | 0.0 | 0.9 | 0.00 | 0.00 | 0.00 | 55 | 1013.7 |
| 20260503053052 | 50 | 0 | 0.0 | 0.0 | 0.00 | 0.00 | 0.00 | 54 | 1013.7 |
| 20260503052535 | 50 | 0 | 0.0 | 0.0 | 0.00 | 0.00 | 0.00 | 53 | 1013.7 |
| 20260503052036 | 50 | 0 | 0.0 | 2.6 | 0.00 | 0.00 | 0.00 | 56 | 1013.8 |
| 20260503051550 | 51 | 0 | 0.0 | 2.6 | 0.00 | 0.00 | 0.00 | 55 | 1013.7 |
| 20260503051034 | 51 | 311 | 0.9 | 3.5 | 0.00 | 0.00 | 0.00 | 53 | 1013.7 |
| 20260503050537 | 51 | 351 | 0.9 | 4.3 | 0.00 | 0.00 | 0.00 | 52 | 1013.7 |
| 20260503050048 | 51 | 318 | 0.9 | 4.3 | 0.00 | 0.00 | 0.00 | 54 | 1013.5 |
| 20260503045542 | 51 | 355 | 0.9 | 4.3 | 0.00 | 0.00 | 0.00 | 54 | 1013.6 |
| 20260503045040 | 51 | 5 | 0.9 | 4.3 | 0.00 | 0.00 | 0.00 | 52 | 1013.7 |
| 20260503044548 | 51 | 0 | 0.9 | 4.3 | 0.00 | 0.00 | 0.00 | 51 | 1013.7 |
| 20260503044034 | 52 | 352 | 0.9 | 5.2 | 0.00 | 0.00 | 0.00 | 50 | 1013.7 |
| 20260503043534 | 52 | 336 | 1.7 | 5.2 | 0.00 | 0.00 | 0.00 | 50 | 1013.6 |
| 20260503043048 | 52 | 329 | 0.9 | 7.0 | 0.00 | 0.00 | 0.00 | 51 | 1013.6 |
| 20260503042534 | 52 | 309 | 1.7 | 8.7 | 0.00 | 0.00 | 0.00 | 51 | 1013.5 |
| 20260503042035 | 52 | 337 | 1.7 | 8.7 | 0.00 | 0.00 | 0.00 | 50 | 1013.4 |
| 20260503041556 | 52 | 311 | 2.6 | 8.7 | 0.00 | 0.00 | 0.00 | 50 | 1013.5 |
| 20260503041035 | 52 | 352 | 0.0 | 1.7 | 0.00 | 0.00 | 0.00 | 54 | 1013.3 |
| 20260503040534 | 52 | 0 | 0.0 | 1.7 | 0.00 | 0.00 | 0.00 | 55 | 1013.4 |
| 20260503040057 | 52 | 0 | 0.0 | 1.7 | 0.00 | 0.00 | 0.00 | 53 | 1013.4 |
| 20260503035537 | 52 | 330 | 0.0 | 2.6 | 0.00 | 0.00 | 0.00 | 53 | 1013.4 |
| 20260503035037 | 52 | 0 | 0.9 | 2.6 | 0.00 | 0.00 | 0.00 | 53 | 1013.3 |
| 20260503034605 | 52 | 332 | 0.9 | 2.6 | 0.00 | 0.00 | 0.00 | 53 | 1013.2 |
| 20260503034035 | 52 | 0 | 0.0 | 1.7 | 0.00 | 0.00 | 0.00 | 53 | 1013.3 |
| 20260503033536 | 53 | 0 | 0.0 | 1.7 | 0.00 | 0.00 | 0.00 | 52 | 1013.1 |
| 20260503033052 | 53 | 0 | 0.0 | 1.7 | 0.00 | 0.00 | 0.00 | 53 | 1013.1 |
| 20260503032534 | 53 | 0 | 0.0 | 1.7 | 0.00 | 0.00 | 0.00 | 53 | 1013.0 |
| 20260503032034 | 53 | 0 | 0.0 | 1.7 | 0.00 | 0.00 | 0.00 | 53 | 1012.8 |
| 20260503031547 | 53 | 0 | 0.0 | 0.9 | 0.00 | 0.00 | 0.00 | 53 | 1012.7 |
| 20260503031035 | 53 | 0 | 0.0 | 0.9 | 0.00 | 0.00 | 0.00 | 53 | 1012.7 |
| 20260503030534 | 53 | 0 | 0.0 | 1.7 | 0.00 | 0.00 | 0.00 | 54 | 1012.7 |
| 20260503030053 | 53 | 0 | 0.0 | 1.7 | 0.00 | 0.00 | 0.00 | 55 | 1012.7 |
| 20260503025534 | 53 | 0 | 0.0 | 1.7 | 0.00 | 0.00 | 0.00 | 54 | 1012.7 |
| 20260503025034 | 53 | 0 | 0.0 | 1.7 | 0.00 | 0.00 | 0.00 | 54 | 1012.7 |
| 20260503024551 | 53 | 0 | 0.0 | 1.7 | 0.00 | 0.00 | 0.00 | 53 | 1012.8 |
| 20260503024036 | 53 | 336 | 0.0 | 0.0 | 0.00 | 0.00 | 0.00 | 53 | 1012.8 |
| 20260503023535 | 53 | 0 | 0.0 | 1.7 | 0.00 | 0.00 | 0.00 | 52 | 1012.8 |
| 20260503023049 | 54 | 0 | 0.0 | 1.7 | 0.00 | 0.00 | 0.00 | 52 | 1012.8 |
| 20260503022535 | 54 | 0 | 0.0 | 1.7 | 0.00 | 0.00 | 0.00 | 52 | 1012.8 |
| 20260503022036 | 54 | 0 | 0.0 | 0.0 | 0.00 | 0.00 | 0.00 | 52 | 1012.8 |
| 20260503021548 | 54 | 0 | 0.0 | 0.0 | 0.00 | 0.00 | 0.00 | 52 | 1012.7 |
| 20260503021035 | 54 | 0 | 0.0 | 0.9 | 0.00 | 0.00 | 0.00 | 51 | 1012.7 |
| 20260503020536 | 54 | 0 | 0.0 | 0.9 | 0.00 | 0.00 | 0.00 | 51 | 1012.7 |
| 20260503020048 | 54 | 0 | 0.0 | 0.0 | 0.00 | 0.00 | 0.00 | 52 | 1012.7 |
| 20260503015535 | 54 | 0 | 0.0 | 0.0 | 0.00 | 0.00 | 0.00 | 52 | 1012.7 |
| 20260503015034 | 54 | 0 | 0.0 | 0.0 | 0.00 | 0.00 | 0.00 | 51 | 1012.6 |
| 20260503014549 | 54 | 0 | 0.0 | 0.0 | 0.00 | 0.00 | 0.00 | 51 | 1012.7 |
| 20260503014037 | 54 | 0 | 0.0 | 0.0 | 0.00 | 0.00 | 0.00 | 54 | 1012.7 |
| 20260503013538 | 54 | 0 | 0.0 | 0.0 | 0.00 | 0.00 | 0.00 | 53 | 1012.5 |
| 20260503013055 | 54 | 0 | 0.0 | 0.0 | 0.00 | 0.00 | 0.00 | 52 | 1012.6 |
| 20260503012537 | 55 | 0 | 0.0 | 0.0 | 0.00 | 0.00 | 0.00 | 52 | 1012.5 |
| 20260503012038 | 55 | 0 | 0.0 | 0.0 | 0.00 | 0.00 | 0.00 | 52 | 1012.5 |
| 20260503011550 | 55 | 0 | 0.0 | 0.0 | 0.00 | 0.00 | 0.00 | 50 | 1012.4 |
| 20260503011038 | 55 | 0 | 0.0 | 0.0 | 0.00 | 0.00 | 0.00 | 51 | 1012.4 |
| 20260503010540 | 55 | 0 | 0.0 | 0.0 | 0.00 | 0.00 | 0.00 | 52 | 1012.3 |
| 20260503010055 | 55 | 0 | 0.0 | 0.0 | 0.00 | 0.00 | 0.00 | 52 | 1012.2 |
| 20260503005539 | 55 | 0 | 0.0 | 0.0 | 0.00 | 0.00 | 0.00 | 51 | 1012.2 |
| 20260503005040 | 55 | 0 | 0.0 | 0.0 | 0.00 | 0.00 | 0.00 | 51 | 1012.2 |
| 20260503004548 | 55 | 0 | 0.0 | 0.0 | 0.00 | 0.00 | 0.00 | 50 | 1012.1 |
| 20260503004037 | 56 | 0 | 0.0 | 0.0 | 0.00 | 0.00 | 0.00 | 48 | 1012.0 |
| 20260503003538 | 56 | 0 | 0.0 | 0.0 | 0.00 | 0.00 | 0.00 | 49 | 1012.0 |
| 20260503003050 | 56 | 0 | 0.0 | 0.0 | 0.00 | 0.00 | 0.00 | 49 | 1012.0 |
| 20260503002537 | 56 | 0 | 0.0 | 0.0 | 0.00 | 0.00 | 0.00 | 46 | 1011.9 |
| 20260503002038 | 56 | 0 | 0.0 | 0.0 | 0.00 | 0.00 | 0.00 | 46 | 1011.8 |
| 20260503001547 | 56 | 0 | 0.0 | 0.0 | 0.00 | 0.00 | 0.00 | 44 | 1011.7 |
| 20260503001039 | 57 | 0 | 0.0 | 0.9 | 0.00 | 0.00 | 0.00 | 45 | 1011.7 |